Weather History for Broomfield, CO

Change the Weather History Date:

Monday, January 21, 2013

  Actual Average Record
Temperature  
Mean Temperature 37 °F -  
Max Temperature 55 °F 44 °F 71 °F (2009)
Min Temperature 19 °F 25 °F 2 °F (1991)
Degree Days  
Heating Degree Days 28    
Moisture  
Dew Point 4 °F    
Average Humidity 41    
Maximum Humidity 80    
Minimum Humidity 7    
Precipitation  
Precipitation 0.00 in - - ()
Sea Level Pressure  
Sea Level Pressure 30.13 in    
Wind  
Wind Speed 6 mph (WNW)    
Max Wind Speed 25 mph    
Max Gust Speed 36 mph    
Visibility 11 miles    
Events      
Averages and records for this station are not official NWS values.
T = Trace of Precipitation, MM = Missing Value Source: NWS Daily Summary

Daily Weather History Graph

Daily Weather History Graph

Search for Another Location

Airport:

Trip Planner

Search our weather history database for the weather conditions in past years. The results will help you decide how hot, cold, wet, or windy it might be!

Date:

Astronomy

Jan. 21, 2013 Rise Set
Actual Time 7:16 AM MST 5:07 PM MST
Civil Twilight 6:47 AM MST 5:36 PM MST
Nautical Twilight 6:14 AM MST 6:09 PM MST
Astronomical Twilight 5:42 AM MST 6:41 PM MST
Moon 12:48 PM MST 2:47 AM MST
Length of Visible Light 10h 48m
Length of Day
9h 50m
Waxing Gibbous, 75% of the Moon is Illuminated
Jan 21
Waxing Gibbous
Jan 26
Full
Feb 3
Last Quarter
Feb 10
New
Feb 17
First Quarter

Hourly Weather History & Observations

Time (MST) Temp. Windchill Dew Point Humidity Pressure Visibility Wind Dir Wind Speed Gust Speed Precip Events Conditions
12:16 AM 23.0 °F - 15.8 °F 74% 30.19 in 10.0 mi Calm Calm - N/A   Clear
12:35 AM 21.2 °F 13.6 °F 14.0 °F 74% 30.18 in 10.0 mi WNW 5.8 mph - N/A   Clear
12:56 AM 21.2 °F 13.6 °F 14.0 °F 74% 30.18 in 10.0 mi NNE 5.8 mph - N/A   Clear
1:16 AM 23.0 °F - 14.0 °F 68% 30.18 in 10.0 mi Calm Calm - N/A   Clear
1:36 AM 21.2 °F - 12.2 °F 68% 30.18 in 10.0 mi Calm Calm - N/A   Clear
1:56 AM 21.2 °F - 14.0 °F 74% 30.18 in 10.0 mi Calm Calm - N/A   Clear
2:16 AM 21.2 °F - 14.0 °F 74% 30.19 in 10.0 mi Calm Calm - N/A   Clear
2:36 AM 19.4 °F - 12.2 °F 74% 30.18 in 10.0 mi Calm Calm - N/A   Clear
2:56 AM 21.2 °F - 14.0 °F 74% 30.17 in 10.0 mi Calm Calm - N/A   Clear
3:16 AM 21.2 °F 16.4 °F 14.0 °F 74% 30.17 in 10.0 mi WNW 3.5 mph - N/A   Clear
3:36 AM 23.0 °F - 14.0 °F 68% 30.17 in 10.0 mi Calm Calm - N/A   Clear
3:56 AM 23.0 °F 18.4 °F 14.0 °F 68% 30.17 in 10.0 mi North 3.5 mph - N/A   Clear
4:16 AM 23.0 °F 14.7 °F 14.0 °F 68% 30.17 in 10.0 mi NNW 6.9 mph - N/A   Clear
4:35 AM 21.2 °F 13.6 °F 14.0 °F 74% 30.18 in 10.0 mi NNW 5.8 mph - N/A   Clear
4:56 AM 21.2 °F 13.6 °F 14.0 °F 74% 30.18 in 10.0 mi NNW 5.8 mph - N/A   Clear
5:49 AM 19.4 °F - 12.2 °F 74% 30.18 in 30.0 mi Calm Calm - N/A   Clear
6:49 AM 19.4 °F 10.4 °F 14.0 °F 80% 30.16 in 70.0 mi SSW 6.9 mph - N/A   Partly Cloudy
7:47 AM 26.6 °F 20.0 °F 12.2 °F 55% 30.15 in 60.0 mi South 5.8 mph - N/A   Partly Cloudy
8:47 AM 32.0 °F 26.4 °F 10.4 °F 41% 30.13 in 60.0 mi SE 5.8 mph - N/A   Partly Cloudy
9:48 AM 41.0 °F 39.0 °F 8.6 °F 26% 30.14 in 60.0 mi SE 3.5 mph - N/A   Partly Cloudy
10:45 AM 46.4 °F 44.3 °F 8.6 °F 22% 30.15 in 50.0 mi NW 4.6 mph - N/A   Partly Cloudy
11:19 AM 46.4 °F 44.3 °F 8.6 °F 22% 30.14 in 60.0 mi NE 4.6 mph - N/A   Partly Cloudy
11:55 AM 50.0 °F - 6.8 °F 17% 30.11 in 60.0 mi NE 6.9 mph - N/A   Partly Cloudy
12:47 PM 53.6 °F - 3.2 °F 13% 30.09 in 60.0 mi NW 5.8 mph - N/A   Partly Cloudy
1:45 PM 55.4 °F - 3.2 °F 12% 30.08 in 50.0 mi West 8.1 mph - N/A   Partly Cloudy
2:53 PM 55.4 °F - -2.2 °F 9% 30.06 in 60.0 mi WSW 15.0 mph - N/A   Partly Cloudy
4:50 PM 50.0 °F - -7.6 °F 9% 30.07 in 60.0 mi West 16.1 mph - N/A   Partly Cloudy
5:50 PM 46.4 °F 39.5 °F -7.6 °F 10% 30.07 in 30.0 mi West 17.3 mph - N/A   Partly Cloudy
6:50 PM 48.2 °F - -11.2 °F 8% 30.07 in 30.0 mi West 20.7 mph - N/A   Partly Cloudy
7:50 PM 48.2 °F - -11.2 °F 8% 30.07 in 30.0 mi WNW 23.0 mph 32.2 mph N/A   Partly Cloudy
8:50 PM 48.2 °F - -11.2 °F 8% 30.09 in 20.0 mi WNW 15.0 mph 21.9 mph N/A   Partly Cloudy
9:45 PM 48.2 °F - -11.2 °F 8% 30.08 in 20.0 mi West 15.0 mph 21.9 mph N/A   Partly Cloudy
10:16 PM 48.2 °F - -11.2 °F 8% 30.07 in 10.0 mi WNW 25.3 mph 33.4 mph N/A   Clear
10:36 PM 48.2 °F - -13.0 °F 7% 30.07 in 10.0 mi WNW 19.6 mph 35.7 mph N/A   Clear
10:56 PM 50.0 °F - -13.0 °F 7% 30.07 in 10.0 mi West 21.9 mph 27.6 mph N/A   Clear
11:15 PM 46.4 °F 39.8 °F -13.0 °F 8% 30.07 in 10.0 mi WNW 16.1 mph 20.7 mph N/A   Clear
11:36 PM 48.2 °F - -14.8 °F 7% 30.07 in 10.0 mi WNW 16.1 mph 19.6 mph N/A   Clear
11:56 PM 48.2 °F - -14.8 °F 7% 30.06 in 10.0 mi WNW 19.6 mph - N/A   Clear